GFSGBSN_500_rhum_000.txt.gz
RH
30 33 29 29 39 42 44 34 32 64 75 81 66 60 61 4 2 3 3 3 3 4 5 5 5 5 5 6 5 4 5 4 4 3 3 3 2 2 3 3 3 3 4 5 7 9 10
23 32 27 35 40 46 46 38 29 52 56 46 46 15 1 2 3 3 3 4 5 6 8 8 8 8 9 10 12 10 12 12 14 13 10 8 5 3 4 4 4 5 7 8 9 10 10
20 31 26 41 47 44 38 21 27 16 13 8 2 1 1 3 3 3 3 4 4 5 7 7 8 8 9 10 11 11 12 12 14 16 18 22 16 14 8 8 6 6 8 10 11 10 12
40 33 40 48 43 39 26 15 14 12 8 0 1 2 3 4 4 4 5 5 5 5 7 8 8 8 7 8 8 10 11 12 13 13 14 16 18 15 14 14 12 12 12 15 13 14 14
41 44 51 50 37 18 16 12 8 2 1 1 2 3 4 4 4 5 6 6 6 6 6 6 6 6 7 8 8 8 9 11 14 15 14 13 13 14 14 16 14 17 16 17 16 16 17
31 38 45 32 23 16 12 5 1 1 2 2 3 4 5 6 7 6 6 6 6 6 6 6 7 7 7 8 8 8 8 9 11 14 15 15 15 17 15 17 17 16 14 15 15 16 15
30 31 29 22 14 10 5 1 1 4 6 4 4 6 7 7 6 5 5 5 5 5 5 5 4 3 4 5 6 7 10 10 9 13 15 14 15 18 17 16 17 18 18 17 15 16 16
30 25 21 18 8 6 1 2 5 8 8 8 7 6 4 4 4 4 4 4 4 4 4 4 4 4 3 3 4 6 10 15 13 11 12 12 13 17 19 19 17 18 20 19 18 18 19
31 24 14 7 8 1 2 3 5 6 6 6 4 4 4 4 4 4 5 5 6 6 7 7 6 6 5 4 4 7 11 19 18 17 12 12 13 14 16 16 14 13 14 16 17 16 18
30 24 6 8 5 1 2 4 6 5 5 4 4 4 3 4 5 6 6 8 8 9 9 8 8 7 5 5 4 6 12 18 23 23 22 18 15 14 15 16 15 11 10 12 14 18 20
28 23 6 7 2 2 3 5 6 5 4 3 3 4 5 6 8 8 9 9 10 9 8 7 7 6 5 4 5 6 10 20 24 28 28 28 28 24 19 16 17 16 14 12 11 18 20
28 22 6 3 1 2 3 5 6 5 3 4 5 5 4 6 7 8 9 9 9 8 7 6 6 6 6 6 6 7 10 20 23 23 21 20 22 22 25 25 19 17 16 15 15 22 22
30 23 9 1 1 1 2 4 5 5 5 6 6 6 6 6 7 8 7 6 5 5 5 5 6 6 5 9 12 14 17 20 18 15 13 13 16 20 20 21 24 24 19 14 16 18 21
33 24 14 2 1 1 2 3 3 4 5 5 6 6 6 6 6 5 2 2 3 3 3 4 4 6 13 13 14 17 18 16 13 14 22 22 23 21 25 26 28 24 21 20 23 22 23
32 26 19 6 1 1 2 2 2 3 4 4 4 3 3 4 3 0 1 3 7 8 9 9 11 13 16 16 18 15 13 18 30 31 36 34 33 33 32 30 26 26 21 23 23 23 23
27 26 23 12 3 1 1 2 2 2 2 2 2 2 2 1 1 7 12 12 14 17 17 16 16 18 19 18 31 44 39 36 37 38 42 41 37 38 34 30 29 31 28 25 23 22 20
24 21 21 17 9 2 1 2 2 2 1 1 1 2 3 9 20 23 19 18 24 29 35 30 28 30 36 42 45 42 36 31 27 38 46 46 44 43 45 37 33 32 31 31 31 32 30
21 16 17 18 14 9 5 3 3 3 4 5 6 9 13 22 28 26 21 24 28 32 34 37 36 32 30 33 38 36 33 29 30 38 47 49 47 45 43 39 38 39 38 38 37 36 40
21 12 14 13 12 9 6 5 4 4 4 4 5 7 14 22 35 31 29 27 27 29 27 32 37 40 41 43 42 44 47 49 49 45 39 38 37 37 38 38 38 40 45 56 52 46 49
24 15 14 12 9 7 8 8 7 7 7 7 7 8 11 17 28 25 20 18 18 16 17 21 24 26 26 23 25 28 28 31 32 37 42 46 54 53 47 40 40 47 58 54 49 46 51
22 16 16 14 11 10 9 9 8 8 8 7 6 7 11 14 16 15 14 14 15 16 18 19 20 21 32 36 39 44 53 58 56 57 56 57 59 66 67 71 68 60 58 57 58 55 53
21 18 16 16 14 12 11 11 10 10 10 10 10 11 10 12 14 14 16 17 18 18 18 20 23 29 30 36 38 40 38 47 47 46 56 59 59 59 57 63 62 62 68 66 68 72 68
24 18 16 15 15 13 12 12 12 11 11 12 14 12 11 11 12 14 16 18 20 19 20 23 26 27 31 31 30 28 28 27 31 36 41 60 65 64 65 63 61 66 63 72 69 72 72
33 24 19 16 14 12 13 13 14 14 12 12 14 15 15 14 13 13 13 14 17 18 20 23 25 26 27 23 23 25 32 35 49 48 56 75 73 68 65 67 66 78 65 64 65 69 76
32 34 26 19 17 14 13 14 15 15 14 12 13 15 17 16 16 15 14 13 15 17 19 19 20 18 18 19 21 27 44 53 53 52 56 70 67 66 63 67 68 74 80 75 67 59 66
24 36 35 26 21 18 16 15 14 15 16 16 13 13 15 18 19 20 19 18 17 17 16 16 16 18 18 20 23 32 53 62 73 76 72 68 67 70 70 79 69 81 83 77 68 57 57
22 28 37 34 29 23 18 15 14 14 15 15 15 14 14 15 17 20 22 22 22 22 21 20 20 20 22 24 25 40 59 68 71 73 70 72 78 79 86 81 70 80 82 75 61 52 50
25 30 36 40 37 31 25 19 16 13 11 12 13 14 15 15 16 18 21 23 24 24 23 22 20 21 24 32 34 48 58 66 65 64 70 73 78 84 76 84 81 80 76 66 63 60 72
31 36 38 44 44 39 33 26 20 17 17 17 16 16 16 16 17 18 20 22 23 22 21 16 17 31 39 40 48 57 67 69 66 54 63 66 78 74 72 75 91 85 82 73 73 76 74

GFSGBSN_500_rhum_003.txt.gz
RH
22 31 35 30 33 39 41 38 26 49 60 86 68 71 66 50 10 0 3 7 6 5 4 4 4 4 5 5 4 3 4 5 7 6 6 6 4 3 3 2 2 1 2 4 6 7 8
20 30 30 30 39 41 47 42 24 81 82 80 58 48 34 0 2 5 6 6 7 8 8 6 7 9 12 13 13 11 10 8 7 7 5 4 3 3 3 3 3 4 5 7 8 10 10
19 19 31 32 41 46 45 33 33 44 21 26 24 0 0 2 4 6 7 8 9 10 10 11 11 10 10 12 11 12 13 14 15 15 11 10 7 6 5 4 5 6 8 9 10 11 13
20 28 31 37 44 44 38 32 24 15 8 2 0 0 2 5 6 6 7 8 8 8 9 8 9 9 9 9 10 11 12 12 13 14 15 14 14 11 10 9 8 9 10 11 12 14 16
38 36 43 47 48 37 24 20 14 11 7 0 0 2 3 4 5 6 8 9 10 9 8 7 7 7 8 8 9 10 12 14 14 12 12 13 14 14 14 14 13 15 16 16 16 18 18
29 42 50 46 42 24 21 14 11 3 0 0 2 4 5 7 8 8 10 11 8 7 7 7 7 8 8 8 9 10 10 12 14 13 12 12 13 13 14 16 18 17 17 17 16 16 16
31 34 45 44 27 21 15 7 2 1 1 3 5 6 7 7 8 9 7 6 6 6 6 6 4 4 4 5 6 9 12 10 11 11 11 12 14 14 16 19 19 19 18 17 17 21 19
34 31 33 22 20 16 6 1 1 1 3 4 5 7 9 11 12 8 6 5 5 4 4 4 4 4 3 2 4 7 11 14 12 11 10 11 16 16 18 20 19 18 18 19 19 21 22
31 32 25 19 12 11 1 1 2 3 3 4 9 11 11 9 6 4 4 5 5 6 7 6 6 6 6 4 3 4 10 15 18 18 14 11 12 13 14 14 14 14 13 14 17 17 16
38 30 20 10 10 3 1 3 6 5 4 9 12 9 6 5 5 5 6 6 7 8 8 8 7 7 6 6 5 4 5 14 20 22 23 22 19 16 14 14 14 13 13 11 10 11 13
39 29 14 5 8 2 1 6 7 8 9 10 8 5 4 4 5 5 7 8 9 9 8 7 7 7 7 6 5 5 6 9 20 26 28 24 24 24 23 22 18 14 13 12 11 10 9
43 31 10 6 4 2 2 6 6 6 7 7 6 4 4 4 6 7 8 9 10 10 9 7 7 7 6 6 5 5 7 10 13 20 20 20 18 18 19 20 19 20 18 17 16 13 12
47 33 13 6 3 2 2 4 5 6 6 5 5 4 4 5 7 8 8 9 10 10 8 7 7 6 6 6 9 11 12 13 16 16 14 11 10 10 12 17 19 19 21 21 18 14 14
48 35 22 5 2 2 2 4 5 5 5 4 4 4 5 5 6 7 8 9 9 7 6 4 3 3 3 5 12 12 14 15 13 11 15 23 27 25 26 23 22 24 24 22 19 15 16
50 37 27 8 1 2 2 4 5 5 4 3 4 5 6 6 7 7 7 6 3 2 2 4 5 7 10 13 14 14 12 17 26 28 28 31 35 36 35 32 29 31 28 27 27 25 23
53 40 31 15 1 2 3 3 4 5 5 5 5 5 5 5 4 4 4 1 2 8 12 15 14 15 17 19 20 33 40 38 36 30 32 38 33 34 35 34 33 33 29 28 27 26 26
54 39 34 24 4 2 2 3 3 3 4 4 4 4 4 3 2 1 1 11 13 19 28 34 28 24 24 31 37 40 38 34 30 28 33 36 42 43 41 38 37 37 36 36 34 32 33
52 42 36 31 13 2 2 2 3 3 3 3 4 3 2 2 2 6 20 20 19 25 29 31 34 32 31 29 32 36 35 34 37 39 41 40 38 36 36 36 35 37 38 40 40 34 36
46 46 35 29 23 6 3 2 3 2 2 2 2 2 2 6 13 22 27 22 27 27 26 22 24 28 30 27 27 24 27 30 32 35 37 41 44 48 52 53 52 56 58 59 54 48 48
44 46 36 25 23 17 6 4 3 2 2 2 2 5 8 10 18 28 31 29 24 22 21 13 16 19 21 30 37 39 39 41 44 44 45 42 46 52 54 56 52 51 58 66 66 63 59
40 43 38 25 21 20 13 9 7 6 5 5 5 6 8 12 20 28 27 18 14 14 14 16 17 19 26 34 33 33 34 33 34 34 38 46 46 46 48 57 54 52 63 64 66 68 61
40 37 33 25 20 17 13 8 6 6 6 8 9 9 7 9 14 19 18 15 15 16 16 16 18 21 28 30 27 22 21 22 28 36 46 50 48 46 47 54 56 56 66 71 71 69 64
36 36 32 26 22 17 11 11 9 8 8 9 9 8 8 8 12 15 16 15 16 16 17 18 20 22 26 27 26 22 20 22 27 38 51 60 60 58 55 56 51 54 64 77 79 86 80
23 37 31 28 22 19 14 12 11 10 10 11 12 12 11 10 11 14 13 14 15 16 18 19 21 22 22 22 23 23 22 22 27 48 62 58 53 51 44 53 54 62 72 65 69 76 72
16 29 32 28 22 20 17 16 14 12 12 11 13 15 14 13 13 13 14 14 14 15 16 17 18 19 18 19 19 19 20 24 29 34 49 53 50 47 47 50 48 71 75 77 73 69 69
17 18 33 29 25 21 18 17 16 15 14 14 13 15 17 17 17 16 15 15 15 15 16 17 18 17 18 19 20 21 24 30 40 45 50 56 54 51 54 50 51 78 73 71 65 62 59
22 18 25 36 31 26 23 19 16 16 16 16 16 14 14 16 18 19 19 20 22 22 23 24 23 23 23 22 22 22 29 42 46 49 56 62 61 56 56 53 57 67 65 55 52 49 49
30 22 22 35 37 31 26 23 19 15 15 15 16 17 16 15 15 16 17 19 20 22 23 23 23 23 23 23 18 19 38 45 43 47 59 64 61 61 52 61 56 54 50 52 56 56 61
38 28 25 28 39 38 34 29 24 19 16 14 14 15 15 15 15 15 15 16 18 19 21 22 24 24 22 16 16 18 37 44 43 44 62 66 74 75 67 66 72 63 56 58 61 69 64

GFSGBSN_500_rhum_006.txt.gz
RH
15 16 36 35 35 36 40 43 46 25 31 74 76 85 92 88 78 48 22 3 7 10 11 13 12 8 7 8 8 10 11 12 12 12 10 12 13 10 8 7 5 3 3 4 5 6 7
15 15 28 30 33 38 44 43 54 72 80 84 69 70 54 8 3 1 6 8 7 7 7 7 8 8 9 8 5 5 5 5 4 4 4 5 5 4 3 2 2 2 4 6 7 8 10
11 14 26 27 32 36 40 42 38 82 73 54 38 13 1 2 5 7 6 6 5 6 12 14 14 15 16 18 16 14 12 10 7 5 4 3 3 6 4 3 4 6 7 8 9 10 12
11 14 20 31 35 46 44 36 34 22 9 14 1 1 4 6 6 7 9 11 14 16 16 14 13 13 12 13 13 13 14 15 14 16 14 12 12 11 8 8 8 8 8 10 10 12 13
10 29 30 35 44 42 40 29 15 10 7 0 1 4 5 7 10 12 14 16 14 12 11 10 10 9 10 11 12 13 12 13 14 14 14 14 14 14 12 11 10 9 10 11 12 15 16
21 44 34 44 44 43 31 19 12 9 1 1 4 6 8 10 12 13 13 12 11 10 8 8 8 8 8 9 10 11 13 13 13 12 12 12 14 14 15 13 13 13 16 17 17 16 17
30 35 45 47 48 42 25 13 6 1 1 3 5 7 9 10 12 12 12 9 8 8 8 7 6 5 6 8 10 12 11 11 12 14 15 16 16 15 14 15 16 17 18 18 19 21 20
28 34 46 47 49 25 14 5 0 0 2 3 5 7 10 11 12 11 8 8 9 6 4 3 4 4 4 5 6 8 14 16 11 12 13 16 19 16 15 16 16 17 18 18 20 21 21
26 36 37 34 26 19 7 1 0 2 3 4 6 8 10 12 9 8 7 7 6 6 7 6 7 7 6 6 4 5 10 17 21 18 13 13 14 13 12 13 13 13 13 12 14 16 19
24 34 34 21 18 12 2 1 1 3 4 6 7 9 10 7 6 6 6 7 7 8 8 8 8 8 7 7 6 4 5 9 18 22 22 18 16 15 14 12 11 10 13 13 12 12 12
30 32 31 17 10 6 1 1 2 4 5 7 9 9 6 6 5 6 6 8 9 8 8 7 8 8 8 7 7 6 5 6 9 18 24 25 24 24 24 22 21 20 18 16 14 14 15
37 32 27 11 10 2 1 3 3 4 6 9 8 6 6 6 6 7 8 9 9 8 8 6 7 7 7 6 6 5 5 6 10 12 17 19 18 17 16 16 18 19 18 18 20 20 19
49 37 26 5 9 1 2 5 3 4 8 8 7 6 6 6 6 7 8 9 9 9 9 8 8 7 6 4 4 5 11 12 12 15 16 12 11 12 10 9 10 17 19 20 22 22 22
56 39 28 5 7 1 2 8 8 8 9 8 6 6 5 6 6 7 8 8 9 9 9 8 6 4 3 3 8 10 11 12 13 12 12 21 24 26 28 28 27 26 26 27 26 25 25
59 44 29 7 5 1 1 7 8 8 8 7 7 6 6 6 6 7 7 8 9 8 5 2 3 5 8 10 12 14 13 14 28 28 25 25 31 32 32 32 32 37 32 34 33 30 28
54 54 30 12 5 2 2 4 6 6 6 6 6 5 5 5 6 6 7 6 5 2 4 10 14 14 15 17 19 22 34 35 30 22 19 24 27 33 35 35 35 36 33 32 33 32 32
53 61 37 22 6 2 2 1 3 4 5 6 5 4 5 5 6 6 4 3 2 8 16 27 30 24 19 20 26 32 34 31 28 28 31 35 34 31 30 32 32 32 34 35 34 38 38
46 64 45 30 14 2 2 2 2 4 5 4 4 4 4 5 5 4 2 2 11 16 25 27 25 25 26 26 28 32 33 26 27 30 34 41 42 43 42 43 46 48 48 47 47 45 51
39 59 50 37 22 8 2 2 3 3 4 4 3 4 4 4 4 3 3 17 21 21 25 21 18 22 24 25 23 30 32 34 35 36 37 40 42 42 40 39 40 46 52 50 51 50 57
29 55 57 39 31 22 4 2 3 3 3 3 3 3 4 4 3 5 16 25 22 26 23 17 11 15 18 22 31 28 33 32 29 32 32 39 46 50 50 50 48 53 57 58 57 59 61
26 52 56 44 34 27 15 3 2 3 3 3 3 3 3 3 5 12 24 28 28 26 19 11 12 14 17 24 22 22 19 17 21 23 26 38 49 45 47 48 44 48 61 58 61 64 68
32 37 48 45 35 26 25 10 4 3 3 3 3 3 3 6 8 11 25 31 22 14 12 12 13 16 17 19 18 16 17 18 18 22 25 30 35 37 39 41 44 42 57 66 65 74 78
34 37 45 43 33 24 23 20 10 6 3 3 4 6 6 7 9 12 22 23 14 12 13 14 15 16 17 17 15 16 18 17 18 22 26 31 37 39 34 39 42 48 48 52 64 74 79
23 39 43 46 35 24 21 20 16 12 8 6 8 10 10 10 9 13 15 15 12 13 15 14 15 16 18 17 17 18 17 17 19 23 28 41 41 37 33 41 40 48 52 56 63 72 72
18 32 40 43 40 26 23 19 14 10 10 10 11 10 9 9 9 11 12 14 14 14 13 14 15 16 16 16 16 17 18 20 21 25 36 43 38 35 37 38 41 50 46 54 55 57 52
20 20 31 39 39 31 25 21 17 13 12 11 12 12 12 13 12 13 14 14 14 14 14 14 15 16 18 18 20 20 22 22 22 26 40 38 38 39 40 48 51 55 48 48 46 49 52
19 21 20 31 37 33 28 26 20 16 13 13 12 14 15 16 16 14 14 15 15 16 17 18 19 22 23 23 23 23 23 23 21 28 34 37 40 43 49 54 55 62 58 52 55 53 56
22 19 19 19 34 34 32 27 23 20 18 18 16 14 14 16 17 17 17 18 18 19 20 21 22 23 23 23 24 24 23 21 19 25 32 38 45 49 51 61 62 66 57 61 58 59 60
46 30 19 19 22 38 35 31 25 21 20 20 19 18 16 15 16 16 16 17 18 19 20 20 20 21 21 22 23 22 20 16 13 16 34 50 53 56 65 69 74 66 64 66 63 61 65

GFSGBSN_500_rhum_009.txt.gz
RH
31 27 21 21 36 35 33 40 53 55 32 30 46 43 83 78 80 81 74 72 73 55 17 14 15 18 17 24 20 18 18 16 12 8 6 21 26 32 40 13 11 9 7 3 2 2 5
33 26 17 21 31 33 37 48 64 51 36 54 84 77 93 92 93 82 72 29 10 12 14 16 18 16 18 18 15 14 13 12 11 12 11 14 17 11 7 4 10 3 3 4 6 7 7
32 18 13 15 29 33 39 50 57 61 83 87 77 85 76 35 8 3 4 10 13 14 12 8 7 8 9 10 10 10 9 7 5 6 6 6 4 3 2 2 2 3 4 6 7 8 10
18 11 11 16 23 31 37 43 34 54 54 73 70 28 1 1 4 8 8 7 8 9 11 13 15 15 15 12 12 10 8 7 4 3 3 3 3 3 4 6 6 7 9 20 13 12 12
10 10 11 22 31 40 44 36 31 20 4 5 1 2 4 6 6 6 7 12 15 17 17 17 19 20 23 21 22 20 19 17 14 13 10 7 8 11 9 12 14 13 72 31 14 13 14
10 10 24 32 38 46 42 29 14 10 4 1 3 5 5 6 7 11 16 17 18 16 15 14 14 16 16 16 16 15 14 14 13 14 14 14 14 16 17 49 75 73 46 20 35 15 17
11 15 43 40 44 45 29 16 10 6 2 4 4 6 9 12 16 18 17 18 16 13 12 10 10 8 8 9 11 12 15 16 16 18 18 18 36 70 18 18 21 20 18 20 17 19 20
12 22 40 44 47 41 29 12 6 1 3 5 7 10 13 16 17 16 14 9 12 12 9 6 6 7 7 9 12 14 13 12 14 17 20 19 21 20 19 19 19 18 19 19 20 21 22
15 29 40 47 47 34 15 7 1 3 4 6 9 11 13 15 12 10 10 10 6 6 6 6 7 6 5 5 5 9 12 18 15 14 14 20 18 18 17 18 17 15 14 13 14 15 18
18 36 38 42 32 20 9 1 1 3 5 7 10 11 13 10 9 8 7 4 6 7 8 8 8 8 7 7 6 5 5 12 21 21 21 15 12 12 13 12 14 14 16 14 13 14 50
21 38 35 29 22 12 4 1 2 3 4 7 9 10 9 8 5 5 6 7 8 9 9 9 8 8 8 7 6 6 5 6 8 16 22 23 25 25 25 24 23 21 21 22 22 20 20
25 40 35 21 14 7 2 1 2 3 5 8 9 9 7 6 6 6 8 9 9 9 10 8 9 8 8 7 6 5 5 6 8 11 14 16 18 16 15 15 15 15 17 19 19 21 27
31 42 36 18 10 3 1 1 3 5 6 8 9 8 6 5 5 6 9 9 8 8 8 8 9 8 7 5 4 4 6 12 12 15 16 15 12 14 18 18 14 12 14 24 28 25 68
34 42 35 13 10 2 1 2 4 5 6 9 9 6 6 6 7 8 9 9 9 9 9 9 8 6 4 3 4 8 11 12 14 14 12 20 22 26 29 29 30 30 30 30 32 34 55
38 42 38 9 8 2 2 3 4 5 8 10 8 6 6 6 7 8 8 8 8 9 9 6 2 3 5 7 10 13 14 13 20 27 22 20 24 23 27 30 33 36 35 34 34 32 30
43 49 42 9 7 2 2 3 4 5 10 10 6 6 6 6 6 7 7 7 8 7 4 3 8 15 13 14 18 18 25 34 27 20 19 24 30 34 34 32 32 33 32 33 32 34 35
43 54 46 16 6 2 3 4 4 5 9 10 7 7 7 6 6 6 6 7 6 3 3 15 26 27 22 20 22 25 26 24 24 24 26 28 33 35 38 38 39 38 39 42 45 48 50
35 60 54 32 6 2 2 6 9 9 10 10 9 8 6 6 6 6 6 6 3 2 14 23 25 18 20 20 22 25 24 24 30 33 34 34 34 35 36 37 38 40 43 44 50 52 49
22 58 60 43 16 3 3 3 6 8 8 7 7 6 5 5 5 4 5 4 2 9 17 24 23 23 22 20 18 24 30 33 33 32 29 30 36 33 25 23 23 32 37 40 45 50 55
15 45 62 51 36 10 3 3 2 4 4 4 4 5 4 4 4 4 4 3 4 21 20 22 18 14 14 15 23 26 33 26 24 25 28 28 28 31 34 38 31 35 41 41 42 42 45
13 31 61 56 42 30 6 3 4 3 2 3 3 4 3 4 4 4 4 3 16 23 22 23 14 12 13 15 22 18 16 16 17 20 24 25 27 32 38 38 31 34 41 43 48 50 49
15 27 57 60 45 34 24 4 3 3 2 2 3 4 3 4 4 3 3 8 20 24 26 24 12 13 13 14 17 16 14 16 18 19 21 23 27 36 41 33 28 30 37 38 41 49 52
16 24 50 60 49 38 30 22 5 4 3 4 3 4 4 4 3 3 7 15 24 29 25 14 12 13 13 14 14 13 13 15 17 20 21 22 26 32 37 28 26 30 32 40 41 42 51
16 24 39 57 55 40 30 27 21 7 4 4 4 4 3 4 4 6 10 13 18 22 14 11 13 13 14 14 14 14 15 16 17 20 21 22 23 25 24 22 29 32 38 46 46 48 47
17 24 37 41 54 46 31 25 24 18 7 4 4 4 4 4 7 10 10 12 21 19 12 12 13 13 14 16 16 16 17 18 20 21 22 22 22 22 24 25 36 37 40 54 58 57 52
17 20 38 42 52 52 39 24 23 22 14 12 8 6 7 8 11 13 10 12 15 15 13 13 13 13 15 16 16 18 19 20 22 22 22 22 20 22 23 35 42 44 48 52 56 62 60
15 18 27 42 46 49 44 30 25 22 17 12 11 12 14 13 16 12 10 12 14 16 13 14 13 15 16 17 18 20 22 23 23 23 24 22 20 23 24 44 46 48 49 51 61 75 70
17 18 21 32 42 42 42 37 31 27 18 15 16 16 16 14 15 15 13 14 16 14 14 15 16 18 18 19 21 22 23 23 24 24 24 21 17 18 38 49 48 50 52 52 61 66 65
17 20 21 21 28 39 40 40 38 31 24 19 16 15 15 16 16 18 17 15 15 16 16 17 18 19 19 20 21 22 23 23 23 23 23 21 18 37 50 58 70 60 62 61 64 72 68

GFSGBSN_500_rhum_015.txt.gz
RH
25 42 75 66 48 51 22 22 36 35 35 41 51 51 46 49 48 47 49 51 60 65 57 56 54 52 48 35 36 34 64 30 18 19 30 47 51 48 67 65 71 66 51 52 63 58 17
27 41 61 46 65 27 18 26 32 31 37 48 55 35 43 49 42 56 60 53 64 65 64 69 61 41 26 31 50 70 26 18 22 30 68 49 66 92 93 75 57 51 13 18 22 3 1
23 35 50 75 39 24 16 20 28 32 50 58 61 38 25 36 57 70 64 71 82 80 78 51 24 22 26 50 40 22 17 13 12 26 24 21 80 100 92 69 22 5 4 4 6 8 9
15 30 54 70 28 21 15 16 27 48 66 55 86 86 56 81 93 86 90 94 93 74 26 21 24 24 37 30 21 12 15 13 10 8 10 20 63 50 22 24 6 4 6 8 12 18 16
12 32 73 52 26 14 13 17 29 56 46 72 86 88 94 96 92 97 92 65 28 18 25 28 30 28 25 21 16 14 13 11 12 17 17 8 18 9 7 57 78 72 71 50 70 33 18
17 64 52 36 15 12 16 26 38 62 43 51 74 78 46 21 25 10 11 14 21 26 25 26 24 22 18 14 11 10 9 9 7 9 8 13 56 49 88 62 41 79 92 98 75 28 20
37 61 52 23 11 13 29 37 49 40 32 5 26 25 4 5 6 12 19 25 24 19 17 12 16 14 16 18 19 18 16 12 8 13 24 45 21 16 26 49 90 97 80 76 61 20 24
35 61 32 10 10 31 37 49 39 29 30 6 5 6 12 14 14 15 17 13 13 13 18 19 25 22 25 24 24 24 22 22 22 25 28 38 36 56 74 47 53 89 73 42 12 17 22
47 48 16 10 26 39 46 45 24 43 20 5 9 9 10 10 11 11 12 16 18 22 22 18 17 13 12 13 14 15 17 19 21 21 20 24 27 32 27 23 24 24 31 44 25 19 22
50 54 10 11 41 44 46 37 15 18 6 8 7 7 10 12 16 19 19 16 16 15 10 8 8 8 8 8 11 14 17 16 15 16 14 24 21 22 20 21 20 18 21 20 17 16 21
67 36 8 16 44 46 45 28 11 4 8 6 6 11 15 17 17 15 14 10 8 8 8 7 8 8 7 7 6 6 13 20 22 22 21 20 18 17 19 20 19 19 19 21 22 24 26
78 21 9 22 42 46 39 18 6 7 8 6 10 16 17 16 14 14 7 7 11 18 9 9 9 8 7 6 5 5 6 7 10 8 15 20 25 22 19 18 17 15 15 17 18 18 18
71 21 11 31 42 42 26 13 3 8 9 11 15 17 14 13 14 8 8 10 42 23 8 9 9 9 8 6 4 4 5 6 8 10 11 13 14 13 13 16 17 18 19 16 12 20 21
59 17 13 42 41 33 17 6 4 8 11 14 16 14 13 12 10 8 9 10 10 9 10 11 10 9 7 5 5 4 6 10 12 12 13 11 16 21 24 23 23 22 24 24 27 39 50
64 20 18 46 39 23 12 3 6 8 12 14 14 11 10 9 9 10 11 10 10 9 9 9 8 4 4 4 4 6 13 14 14 14 22 19 21 22 28 28 28 30 32 33 33 35 37
56 22 24 60 30 14 8 2 6 9 12 14 13 10 9 10 10 10 10 10 20 9 8 7 4 6 11 10 11 14 15 15 21 26 20 22 28 28 28 33 32 29 30 28 26 29 37
50 19 37 59 18 11 4 3 6 8 11 12 12 10 8 11 9 9 10 9 8 8 7 5 5 17 22 16 18 18 19 28 28 21 23 29 33 33 32 26 21 18 18 21 22 23 29
35 20 55 51 11 9 2 3 6 8 10 12 12 11 10 8 9 9 9 8 7 7 6 4 11 30 24 20 17 20 25 26 22 23 30 33 34 33 27 27 22 20 21 21 24 26 26
36 30 65 49 8 7 2 3 5 7 8 10 11 11 9 8 8 8 7 6 6 6 5 3 18 25 20 19 19 20 18 23 28 31 29 28 27 25 28 25 23 19 19 20 21 22 28
23 57 80 50 8 5 2 3 5 6 7 9 10 10 9 8 8 7 6 6 6 5 4 4 20 25 23 22 20 20 24 28 31 26 25 24 23 24 25 22 20 19 19 20 25 25 22
25 73 88 41 8 5 3 4 6 6 6 8 10 11 10 8 6 7 6 5 5 4 4 5 18 24 16 16 16 18 23 29 26 20 20 18 20 20 22 21 20 20 18 17 18 25 26
34 75 76 44 9 7 4 4 6 6 7 8 10 12 10 8 8 8 6 5 4 4 4 6 20 25 15 10 11 16 19 23 22 16 17 17 19 20 20 20 20 20 19 17 16 20 28
44 79 83 61 15 10 6 5 6 7 7 8 10 10 10 8 8 7 5 5 4 4 5 6 22 22 22 15 15 18 23 19 16 14 15 15 18 20 20 21 21 20 20 18 16 18 25
46 81 93 68 46 13 9 6 5 6 6 7 8 11 10 9 8 7 5 5 4 4 4 4 10 23 32 28 14 14 17 18 18 16 15 15 16 18 21 21 20 20 19 19 18 18 25
34 78 97 75 61 42 12 9 6 5 5 5 5 7 9 8 7 6 5 4 4 4 4 4 20 33 32 30 19 15 16 16 18 16 16 17 18 20 21 21 21 20 20 20 19 20 30
24 51 92 96 69 57 44 16 9 7 4 4 5 7 8 7 5 5 5 4 4 4 4 8 17 27 36 32 21 14 16 16 16 17 18 18 20 20 21 22 20 19 18 19 20 21 28
21 29 66 92 92 71 54 44 30 12 7 6 5 5 5 4 4 4 4 4 4 4 4 6 11 18 31 30 22 17 17 17 17 18 19 19 20 20 22 21 20 21 19 21 22 25 28
23 22 32 72 88 92 74 53 41 36 24 9 6 4 4 4 4 4 5 5 4 4 6 9 11 19 28 32 27 18 17 19 16 17 19 19 20 22 21 21 20 20 19 22 26 28 30
26 23 27 42 71 86 91 84 57 41 32 29 21 11 6 6 6 5 5 6 6 4 5 14 16 27 23 29 24 20 19 19 19 18 19 20 22 23 23 23 25 24 26 30 28 31 40

GFSGBSN_500_rhum_018.txt.gz
RH
11 8 10 12 18 23 31 58 44 18 33 36 35 39 47 48 46 42 43 55 53 67 79 62 44 38 35 30 42 35 23 24 62 21 25 70 98 98 92 85 82 78 74 69 67 64 64
13 9 11 15 17 17 32 58 21 18 33 32 34 45 52 47 46 49 44 46 52 63 75 54 48 36 29 48 36 25 28 65 28 31 58 73 96 95 82 80 80 80 67 42 63 62 52
14 10 11 14 12 15 49 32 16 20 28 39 54 56 57 33 45 48 47 60 53 64 68 59 48 43 44 30 36 38 55 41 22 35 46 50 61 82 74 69 73 61 61 11 32 42 4
14 12 11 11 8 32 50 22 16 20 30 52 76 63 63 43 32 65 70 59 69 73 72 78 70 37 25 54 44 61 32 20 18 37 63 55 28 62 71 59 55 31 5 6 10 10 12
14 13 10 10 16 44 40 16 15 19 41 52 70 89 78 70 68 89 79 80 86 81 76 42 22 27 41 35 30 21 20 18 12 20 35 34 24 30 44 22 66 51 26 24 16 40 31
14 12 10 10 36 60 34 14 16 25 47 46 80 85 87 100 94 90 98 99 82 39 23 27 32 34 31 22 13 10 15 12 13 41 31 31 38 51 56 65 64 67 34 18 18 54 30
13 11 10 25 55 48 16 13 22 36 50 43 59 68 66 40 72 95 66 20 18 30 35 33 32 25 21 16 14 13 12 13 18 40 30 43 47 48 64 74 81 95 75 56 69 62 66
12 10 10 35 61 25 12 17 34 49 43 30 9 18 11 6 7 9 13 20 26 24 26 22 20 15 13 12 14 11 9 11 13 16 16 19 22 42 42 47 84 97 96 71 39 46 44
13 10 11 34 43 12 13 33 46 48 26 29 6 7 6 6 8 15 24 25 20 16 17 16 20 23 25 24 22 23 21 20 19 19 13 44 31 21 28 37 58 78 91 77 68 61 30
11 12 13 46 21 12 24 42 46 34 40 16 5 10 12 15 17 19 15 16 21 25 28 27 22 16 13 13 16 18 20 20 18 18 20 28 30 22 26 28 26 29 54 66 47 35 30
15 13 18 48 24 14 38 44 42 22 18 5 9 12 12 13 13 16 20 22 22 16 14 11 10 10 10 10 13 13 15 16 18 20 19 25 22 19 20 22 17 17 19 22 20 22 26
17 12 29 49 28 27 45 46 35 12 5 8 8 9 10 14 20 20 19 13 10 11 8 8 8 8 8 8 8 10 18 20 25 25 28 27 28 28 27 26 26 24 22 21 21 21 20
16 12 51 54 10 40 47 46 28 6 6 8 7 10 16 18 18 15 10 8 14 23 10 10 10 9 9 8 7 6 7 8 11 12 21 22 20 17 15 13 12 15 18 19 17 14 15
14 21 60 26 10 40 47 44 20 4 8 8 9 16 17 15 14 10 8 42 41 11 10 10 10 10 9 8 6 4 5 7 9 12 14 12 13 13 17 20 20 20 22 23 25 27 54
16 41 47 13 13 41 46 38 14 5 8 9 14 18 14 14 10 8 14 33 12 10 11 11 10 9 7 5 5 4 6 8 11 12 14 18 22 18 20 25 26 28 30 29 29 32 35
22 71 61 12 19 44 40 26 8 7 8 11 18 17 13 11 7 8 10 12 11 10 9 9 6 4 5 4 5 5 11 12 12 13 23 20 22 26 27 30 27 20 20 20 21 22 25
31 89 61 12 29 44 37 18 5 7 10 13 19 15 12 8 7 9 10 11 13 10 9 7 4 10 16 12 11 13 15 15 19 23 16 22 27 32 29 22 22 20 19 20 19 19 20
78 99 41 12 40 43 29 14 4 8 13 17 19 14 10 6 9 11 10 10 11 8 7 6 6 26 26 19 19 20 19 23 24 19 24 30 30 30 25 24 22 19 19 20 21 21 21
64 85 33 14 51 49 22 11 3 8 13 17 18 13 9 9 10 11 9 9 8 7 6 5 7 28 24 18 23 22 21 21 21 25 30 31 29 27 28 29 24 20 18 14 14 15 17
99 83 33 17 62 40 15 7 3 8 13 16 16 11 8 9 11 10 9 8 7 6 6 4 8 27 24 20 23 21 22 22 27 30 26 27 26 25 26 26 23 20 18 16 17 16 15
100 99 24 29 62 30 11 5 4 8 12 13 15 11 13 11 9 8 8 8 6 6 4 4 6 21 20 20 21 19 22 25 31 28 26 24 21 20 20 20 20 19 20 19 19 18 17
99 47 23 50 55 13 8 4 4 8 10 11 12 12 11 11 9 9 7 7 6 5 4 4 5 14 21 12 19 21 24 29 33 27 23 20 18 18 19 20 21 21 21 21 20 20 19
100 41 43 69 57 10 7 3 4 7 9 10 10 11 10 10 8 8 7 7 6 5 4 4 4 10 23 25 18 25 25 31 34 31 21 17 17 16 17 18 20 20 21 21 20 19 19
73 43 70 86 52 10 7 4 4 6 8 8 9 10 10 10 9 8 8 7 6 5 4 4 4 6 28 29 26 16 18 26 29 28 22 18 17 16 16 18 19 20 22 22 21 20 20
38 75 85 94 29 10 8 5 4 6 6 6 7 9 10 14 12 10 9 7 6 5 4 4 5 6 20 28 31 29 21 17 22 27 26 26 25 21 21 20 20 20 22 22 20 21 22
53 89 90 91 31 14 10 7 4 6 7 6 7 9 10 13 12 10 8 7 7 5 4 4 4 5 9 18 29 33 30 22 17 19 21 26 25 24 22 20 20 20 22 22 21 22 26
74 96 96 88 63 19 15 11 7 6 7 7 8 8 9 10 11 11 10 8 7 5 4 4 5 5 5 13 20 27 30 26 19 16 19 22 23 22 22 21 20 21 23 22 20 24 42
81 98 99 88 73 56 23 16 13 7 6 6 7 7 7 7 7 8 9 8 6 5 5 6 6 6 7 10 15 19 28 27 21 19 22 23 22 24 24 23 21 22 22 21 22 36 43
68 89 99 100 78 65 57 41 21 16 9 6 6 6 5 5 6 7 8 6 5 4 4 4 4 5 6 10 15 20 24 23 26 24 27 25 27 25 24 23 23 22 22 22 24 31 47

GFSGBSN_500_rhum_021.txt.gz
RH
12 12 10 9 13 12 11 9 8 21 52 32 21 36 35 37 42 47 42 42 44 62 64 70 44 33 40 41 43 48 46 33 25 22 17 33 48 73 98 100 96 93 90 87 79 89 91
13 13 10 10 16 15 12 8 10 37 47 21 27 32 33 42 54 52 44 44 44 60 68 78 50 33 37 36 53 44 32 27 24 22 20 76 97 99 98 96 92 89 80 72 71 66 61
14 11 9 8 13 15 11 8 14 41 22 17 27 34 52 56 55 49 47 46 45 53 68 68 36 38 30 49 47 35 28 29 60 25 55 81 88 88 87 91 83 84 77 54 19 37 50
21 15 10 9 16 15 11 8 20 35 17 20 30 55 66 65 53 37 46 55 62 59 62 54 33 71 64 44 38 32 27 58 49 55 86 96 100 95 85 88 71 75 76 18 40 38 10
30 19 16 17 19 17 10 8 24 28 15 19 46 65 92 51 36 51 67 62 55 61 65 68 70 71 34 38 40 31 31 71 48 63 95 97 99 99 92 83 66 60 28 12 36 44 15
31 28 21 22 23 18 10 11 39 24 16 29 46 74 82 79 77 66 89 71 78 77 74 84 48 31 58 57 52 52 55 45 56 74 83 88 80 91 87 54 65 28 41 22 30 27 18
36 30 29 22 22 15 10 20 45 16 19 36 46 66 72 74 89 92 95 96 96 84 35 32 36 42 35 25 12 15 21 28 70 89 83 63 55 55 68 28 28 12 21 34 35 21 20
33 31 29 21 21 12 9 37 32 14 25 44 40 11 52 48 40 87 85 88 35 27 30 34 35 29 20 15 10 14 20 44 58 76 29 32 26 29 16 34 36 50 38 34 26 44 31
29 29 24 24 19 11 11 37 13 20 36 46 36 10 11 13 9 61 40 18 27 30 30 26 21 15 13 12 12 12 13 19 37 48 35 14 13 23 66 76 75 56 41 60 74 66 53
27 27 23 23 17 10 17 26 15 32 46 40 30 6 6 3 6 12 23 26 22 19 17 17 19 26 26 28 20 10 12 12 13 13 25 30 22 28 50 44 37 42 62 66 74 72 69
29 24 20 18 14 10 21 23 21 41 44 38 14 6 7 8 19 22 18 17 18 21 26 28 26 22 20 25 23 29 20 18 17 20 24 33 37 36 27 22 26 27 28 26 31 51 64
27 22 19 15 11 13 26 26 27 43 35 27 8 11 14 19 16 14 18 23 27 26 23 19 15 12 12 14 16 18 19 21 26 27 26 32 26 23 21 18 19 21 24 25 25 26 31
29 23 17 13 12 19 30 23 38 41 23 7 11 13 16 14 14 19 23 25 22 20 11 10 9 8 9 9 11 13 16 17 20 29 29 23 20 23 24 27 25 23 19 17 17 17 17
48 25 16 14 14 20 26 24 44 38 8 8 11 11 12 15 20 22 22 15 12 9 9 9 10 10 9 8 9 8 11 19 22 26 27 24 22 19 16 16 21 21 21 21 19 21 21
58 24 22 16 16 36 20 38 46 33 5 9 10 10 14 19 20 20 12 12 19 10 10 11 10 10 11 10 10 8 7 8 8 12 15 19 16 15 21 22 23 25 28 28 24 22 21
43 28 22 21 36 46 16 44 47 26 6 10 11 14 17 17 17 11 12 36 13 11 11 12 12 11 9 8 7 7 5 7 9 12 15 15 20 22 27 27 27 21 18 19 20 19 18
32 30 24 25 62 26 20 46 46 15 7 11 15 15 16 15 13 8 33 16 13 13 10 9 7 5 5 5 4 5 5 11 12 14 19 19 24 29 30 24 19 20 20 21 20 19 19
43 40 25 68 45 14 27 46 42 8 8 12 18 16 14 14 8 10 16 12 11 11 9 8 6 10 18 16 9 9 10 15 14 22 18 24 29 32 29 24 23 22 20 19 16 15 15
53 48 57 72 35 16 37 44 30 7 8 15 19 17 14 13 7 9 10 11 14 10 8 7 6 22 30 24 21 19 18 17 25 20 22 30 32 32 30 25 27 24 20 18 16 16 16
44 54 91 87 36 23 45 41 20 7 9 15 20 16 14 11 7 9 10 11 12 9 7 6 5 22 25 22 23 22 22 26 20 21 28 30 34 31 28 28 27 25 21 19 17 16 17
46 70 97 90 29 33 47 38 16 7 9 13 18 16 14 9 7 9 9 10 10 9 6 5 4 14 24 24 25 25 27 26 24 26 32 30 29 26 24 23 22 21 20 20 19 19 19
48 64 100 76 24 45 47 30 14 7 10 13 17 17 14 12 11 10 9 9 9 7 5 4 4 8 29 27 26 22 27 26 28 32 31 28 26 22 20 20 20 20 20 20 20 21 21
41 54 98 57 28 48 54 28 13 8 10 14 17 17 15 11 9 9 10 10 9 7 5 5 4 5 16 32 20 22 23 25 29 33 32 27 23 18 16 17 17 17 19 20 21 22 22
36 81 98 50 38 53 57 16 10 8 10 14 17 16 15 11 10 11 10 10 9 8 6 5 4 5 9 23 28 22 17 18 24 30 33 31 25 19 17 18 16 19 20 21 21 22 22
34 67 100 67 47 60 36 11 8 7 9 13 15 15 15 14 13 12 9 9 8 7 7 5 5 4 5 12 22 28 30 21 18 21 28 31 33 30 24 21 20 19 21 22 22 22 23
52 88 74 73 50 59 16 10 7 6 10 11 13 13 13 13 12 11 9 8 9 8 8 6 5 4 4 4 7 16 22 29 31 25 20 24 29 32 32 29 22 20 22 24 24 21 24
52 100 81 72 71 73 22 10 6 6 9 11 11 12 12 11 11 10 9 9 8 8 8 7 6 5 4 5 5 5 8 15 21 27 28 24 24 27 30 27 20 25 25 26 23 24 24
100 100 93 78 94 56 14 10 8 8 10 11 9 9 11 10 10 10 12 11 9 9 8 8 7 6 5 5 5 6 6 7 9 14 23 28 25 26 27 26 20 27 26 25 24 25 25
100 100 96 91 99 87 19 12 10 8 9 9 9 8 8 8 10 10 12 13 12 11 10 9 7 6 5 5 5 5 6 6 9 10 23 30 42 37 35 32 30 28 25 24 25 26 25

GFSGBSN_500_rhum_024.txt.gz
RH
20 14 12 11 11 11 12 13 16 17 15 8 28 34 19 33 36 35 40 47 39 41 57 58 64 36 31 42 40 53 49 50 48 33 37 52 25 97 100 100 94 100 94 98 94 89 94
36 24 16 15 15 13 12 12 17 16 13 10 29 22 19 29 32 39 46 54 45 42 51 65 66 44 35 44 52 55 48 48 42 24 79 45 89 100 100 89 78 95 93 93 89 86 70
50 33 31 25 24 19 14 14 18 17 14 10 29 17 22 36 53 57 57 55 48 42 45 60 73 48 41 55 54 56 46 36 27 32 54 100 97 78 71 90 96 97 96 90 40 41 65
55 51 47 45 32 23 18 19 19 20 14 14 26 16 32 56 66 63 59 51 50 45 55 61 64 53 67 53 49 49 34 28 33 37 72 88 95 100 96 93 94 93 87 49 47 28 34
40 58 45 48 36 29 23 22 19 21 14 22 22 20 54 72 63 56 37 47 53 64 60 65 66 69 66 50 47 48 31 35 75 86 96 100 100 97 99 97 94 77 73 71 48 35 30
31 41 52 39 33 25 27 21 16 20 11 28 18 38 60 68 64 45 58 66 55 54 64 66 77 78 65 46 44 41 30 73 92 100 100 97 96 96 98 92 75 64 61 43 12 9 9
16 26 30 35 36 28 28 23 16 17 11 32 17 45 53 62 56 67 70 94 64 85 81 78 65 49 42 64 44 39 48 91 96 100 100 98 93 98 95 89 73 53 34 29 11 10 10
7 12 21 26 34 31 29 24 16 15 13 30 18 46 46 45 50 50 54 79 95 75 75 53 35 47 58 61 63 50 64 81 93 100 100 100 97 96 86 76 59 39 27 55 37 22 17
3 4 11 19 27 31 28 22 18 13 16 22 23 46 30 11 21 32 79 92 69 42 29 36 36 30 20 15 13 20 39 86 98 97 84 63 74 64 58 59 46 21 25 41 47 64 47
2 2 4 11 18 29 25 20 18 12 20 20 34 44 29 6 9 37 90 29 29 32 33 28 22 19 16 14 11 15 25 67 84 84 77 39 51 48 50 37 28 71 65 45 34 55 61
2 1 2 6 13 26 26 18 18 12 24 25 47 37 15 5 7 10 20 26 28 26 22 16 16 17 15 13 13 12 16 32 76 65 69 26 31 30 39 48 43 39 37 30 26 32 37
1 2 3 6 17 22 24 17 15 15 27 32 43 35 6 5 7 20 22 19 19 18 20 26 32 34 31 26 15 10 10 13 16 17 20 37 44 41 28 33 26 22 24 24 20 19 18
40 12 8 16 24 22 22 16 13 20 26 42 35 14 7 12 19 18 16 18 20 26 27 26 22 18 23 24 25 23 20 21 22 24 26 30 34 33 29 25 18 17 20 21 21 20 18
96 31 19 24 24 19 19 15 13 26 25 42 18 10 14 17 14 14 20 26 28 29 19 14 12 11 12 13 14 14 17 19 22 28 29 28 23 23 19 22 24 18 15 17 19 20 20
97 52 28 30 23 18 17 14 18 28 32 32 9 12 15 13 15 22 24 24 22 22 11 10 9 10 10 9 10 9 11 17 20 26 29 34 33 27 19 16 19 24 22 25 27 23 19
91 75 42 34 28 19 17 16 27 26 41 12 11 12 12 14 20 23 22 18 13 10 10 11 11 11 11 11 10 10 8 9 12 13 16 18 18 15 20 24 25 29 28 21 19 18 18
57 78 83 52 29 30 37 29 27 32 40 10 10 11 14 18 20 20 16 12 20 11 12 12 12 13 12 13 11 10 10 8 9 11 13 15 18 25 26 29 31 22 19 22 22 19 16
74 96 76 46 46 52 54 24 28 45 28 10 10 11 16 17 17 14 11 26 14 13 13 10 8 6 6 7 8 7 7 8 12 14 16 17 27 26 32 34 22 20 21 22 18 16 16
100 90 98 58 57 63 67 16 40 46 14 12 10 14 15 15 13 11 12 23 15 13 11 8 8 8 22 22 14 8 8 9 14 15 18 22 24 30 31 27 25 25 27 23 20 18 18
100 98 56 57 64 67 63 22 46 42 11 13 14 16 15 14 12 9 22 19 13 14 11 8 7 8 31 29 22 16 16 16 17 17 22 23 30 31 33 30 30 31 30 26 22 19 19
100 80 45 55 82 75 37 31 46 33 12 13 13 14 13 12 9 8 14 12 13 13 10 8 6 7 29 29 26 26 21 20 19 25 21 27 30 32 30 27 28 27 26 23 21 20 20
94 49 48 77 90 58 24 49 40 27 12 13 14 14 15 13 13 10 9 10 12 11 9 6 5 6 21 32 25 24 25 25 25 23 24 31 32 31 28 26 23 21 20 20 20 20 20
60 42 62 93 87 46 29 61 36 22 12 12 14 17 18 14 14 10 8 10 12 12 10 7 5 5 9 29 24 23 23 23 23 24 27 30 28 27 22 22 19 17 18 18 18 19 19
36 48 69 99 90 48 47 65 28 17 12 14 16 19 18 15 14 12 9 10 11 11 10 8 5 5 5 11 25 19 17 18 18 22 24 29 31 26 23 21 16 14 15 17 19 23 22
42 60 61 100 97 36 67 54 22 15 12 14 16 19 20 18 17 14 11 11 12 11 10 9 7 5 5 5 9 23 26 21 17 15 19 23 26 30 29 24 18 20 21 20 22 26 25
51 43 76 100 45 36 73 46 18 14 11 13 14 18 20 20 17 16 12 12 12 10 11 10 9 7 5 4 5 5 13 22 24 24 26 23 19 20 22 21 15 18 24 27 26 18 27
47 48 75 99 69 53 67 43 16 12 10 13 14 14 19 21 18 15 14 14 13 11 11 11 9 8 7 6 5 4 5 5 8 14 26 31 33 31 29 24 17 21 23 27 26 27 24
37 56 94 100 67 67 65 59 15 11 9 14 31 16 19 20 20 17 16 14 13 12 12 12 10 8 8 7 6 6 5 6 6 8 10 12 17 22 28 28 24 34 34 34 32 30 28
65 89 97 99 80 86 83 14 12 10 17 50 24 16 17 18 18 16 15 14 12 12 11 10 10 9 8 8 8 6 5 4 4 4 7 9 16 15 18 20 27 31 34 35 34 31 29